Weather History for Litchfield, IL

Change the Weather History Date:

Tuesday, May 14, 2013

  Actual Average (KSPI) Record (KSPI)
Temperature  
Mean Temperature 70 °F 63 °F  
Max Temperature 88 °F 74 °F 91 °F (1932)
Min Temperature 52 °F 52 °F 34 °F (1895)
Degree Days  
Heating Degree Days 0 4  
Month to date heating degree days 78  
Since 1 July heating degree days 5423  
Cooling Degree Days 4 2  
Month to date cooling degree days 22  
Year to date cooling degree days 42  
Growing Degree Days 20 (Base 50)    
Moisture  
Dew Point 53 °F    
Average Humidity 56    
Maximum Humidity 78    
Minimum Humidity 34    
Precipitation  
Precipitation 0.00 in 0.14 in 1.04 in (1907)
Month to date precipitation 1.88  
Year to date precipitation 11.65  
Snow  
Snow 0.00 in 0.00 in 0.00 in ()
Month to date snowfall 0.0  
Since 1 July snowfall 20.9  
Snow Depth -    
Sea Level Pressure  
Sea Level Pressure 29.89 in    
Wind  
Wind Speed 11 mph (SSW)    
Max Wind Speed 18 mph    
Max Gust Speed 23 mph    
Visibility 10 miles    
Events      
T = Trace of Precipitation, MM = Missing Value Source: NWS Daily Summary

Daily Weather History Graph

Daily Weather History Graph

Search for Another Location

Airport:

Trip Planner

Search our weather history database for the weather conditions in past years. The results will help you decide how hot, cold, wet, or windy it might be!

Date:

Astronomy

May. 14, 2013 Rise Set
Actual Time 5:46 AM CDT 8:04 PM CDT
Civil Twilight 5:16 AM CDT 8:34 PM CDT
Nautical Twilight 4:39 AM CDT 9:11 PM CDT
Astronomical Twilight 3:58 AM CDT 9:52 PM CDT
Moon 9:25 AM CDT (5/14) 11:52 PM CDT (5/14)
Length of Visible Light 15h 18m
Length of Day
14h 18m
Waxing Crescent, 19% of the Moon is Illuminated
May 14
Waxing Crescent
May 17
First Quarter
May 24
Full
May 31
Last Quarter
Jun 8
New

Hourly Weather History & Observations

Time (CDT) Temp. Heat Index Dew Point Humidity Pressure Visibility Wind Dir Wind Speed Gust Speed Precip Events Conditions
12:15 AM 56.5 °F - 42.8 °F 60% 30.04 in 10.0 mi SSE 8.1 mph - N/A   Clear
12:35 AM 56.5 °F - 42.8 °F 60% 30.04 in 10.0 mi SSE 9.2 mph - N/A   Clear
12:55 AM 56.1 °F - 43.2 °F 62% 30.03 in 10.0 mi SSE 11.5 mph - N/A   Clear
1:15 AM 55.6 °F - 43.5 °F 64% 30.02 in 10.0 mi SSE 11.5 mph - N/A   Clear
1:35 AM 55.0 °F - 43.7 °F 66% 30.01 in 10.0 mi SSE 10.4 mph - N/A   Clear
1:55 AM 54.5 °F - 43.9 °F 67% 30.01 in 10.0 mi SSE 10.4 mph - N/A   Clear
2:15 AM 54.5 °F - 43.9 °F 67% 30.00 in 10.0 mi SSE 9.2 mph - N/A   Clear
2:35 AM 54.0 °F - 44.1 °F 69% 29.99 in 10.0 mi SSE 10.4 mph - N/A   Clear
2:55 AM 53.8 °F - 44.1 °F 70% 29.99 in 10.0 mi SSE 10.4 mph - N/A   Clear
3:15 AM 53.6 °F - 44.6 °F 72% 29.98 in 10.0 mi SSE 10.4 mph - N/A   Clear
3:35 AM 53.6 °F - 44.6 °F 72% 29.98 in 10.0 mi SSE 10.4 mph - N/A   Clear
3:55 AM 53.6 °F - 44.6 °F 72% 29.98 in 10.0 mi SSE 10.4 mph - N/A   Clear
4:15 AM 53.1 °F - 44.6 °F 73% 29.97 in 10.0 mi SSE 9.2 mph - N/A   Clear
4:35 AM 52.9 °F - 44.6 °F 73% 29.97 in 10.0 mi SSE 9.2 mph - N/A   Clear
4:55 AM 52.9 °F - 44.6 °F 73% 29.96 in 10.0 mi SSE 9.2 mph - N/A   Clear
5:15 AM 52.7 °F - 44.8 °F 74% 29.96 in 10.0 mi SSE 9.2 mph - N/A   Clear
5:35 AM 52.3 °F - 45.0 °F 76% 29.95 in 10.0 mi SSE 9.2 mph - N/A   Clear
5:55 AM 52.2 °F - 45.5 °F 78% 29.95 in 10.0 mi South 10.4 mph - N/A   Clear
6:15 AM 52.7 °F - 45.7 °F 77% 29.95 in 10.0 mi South 8.1 mph - N/A   Clear
6:35 AM 54.0 °F - 46.6 °F 76% 29.95 in 10.0 mi South 10.4 mph - N/A   Clear
6:55 AM 54.5 °F - 47.3 °F 77% 29.95 in 10.0 mi South 11.5 mph - N/A   Clear
7:15 AM 55.0 °F - 47.8 °F 77% 29.94 in 10.0 mi South 13.8 mph 17.3 mph N/A   Clear
7:35 AM 56.7 °F - 48.6 °F 74% 29.94 in 10.0 mi South 16.1 mph 20.7 mph N/A   Clear
7:55 AM 57.4 °F - 49.5 °F 75% 29.94 in 10.0 mi South 11.5 mph - N/A   Scattered Clouds
8:15 AM 58.3 °F - 50.5 °F 75% 29.93 in 10.0 mi South 12.7 mph - N/A   Scattered Clouds
8:35 AM 60.1 °F - 51.8 °F 74% 29.93 in 10.0 mi South 12.7 mph - N/A   Clear
8:55 AM 61.9 °F - 53.1 °F 73% 29.92 in 10.0 mi South 12.7 mph - N/A   Clear
9:15 AM 64.8 °F - 54.9 °F 70% 29.91 in 10.0 mi South 13.8 mph - N/A   Clear
9:35 AM 66.2 °F - 54.7 °F 66% 29.91 in 10.0 mi SSW 13.8 mph - N/A   Clear
9:55 AM 67.3 °F - 55.6 °F 66% 29.90 in 10.0 mi South 12.7 mph - N/A   Clear
10:15 AM 69.8 °F - 57.4 °F 65% 29.90 in 10.0 mi South 12.7 mph - N/A   Clear
10:35 AM 72.1 °F - 57.9 °F 61% 29.90 in 10.0 mi SSW 11.5 mph - N/A   Clear
10:55 AM 73.8 °F - 56.8 °F 55% 29.90 in 10.0 mi SSW 11.5 mph - N/A   Clear
11:15 AM 74.8 °F - 57.7 °F 55% 29.90 in 10.0 mi SSW 10.4 mph 17.3 mph N/A   Clear
11:35 AM 75.7 °F - 58.1 °F 54% 29.89 in 10.0 mi SSW 12.7 mph - N/A   Clear
11:55 AM 77.2 °F - 59.5 °F 54% 29.89 in 10.0 mi SSW 12.7 mph - N/A   Clear
12:15 PM 78.3 °F - 60.1 °F 53% 29.89 in 10.0 mi SSW 13.8 mph - N/A   Clear
12:35 PM 79.5 °F - 60.1 °F 51% 29.88 in 10.0 mi SW 10.4 mph - N/A   Clear
12:55 PM 81.0 °F 81.5 °F 59.4 °F 48% 29.88 in 10.0 mi SW 15.0 mph - N/A   Clear
1:15 PM 81.1 °F 81.5 °F 59.2 °F 47% 29.87 in 10.0 mi SW 12.7 mph 18.4 mph N/A   Clear
1:35 PM 82.4 °F 82.6 °F 59.7 °F 46% 29.87 in 10.0 mi SSW 12.7 mph 18.4 mph N/A   Clear
1:55 PM 83.3 °F 83.2 °F 59.2 °F 44% 29.86 in 10.0 mi SW 13.8 mph - N/A   Clear
2:15 PM 83.7 °F 83.6 °F 59.7 °F 44% 29.86 in 10.0 mi SSW 13.8 mph - N/A   Clear
2:35 PM 84.6 °F 84.2 °F 58.8 °F 42% 29.86 in 10.0 mi WSW 15.0 mph 20.7 mph N/A   Clear
2:55 PM 85.8 °F 85.4 °F 59.4 °F 41% 29.85 in 10.0 mi SW 16.1 mph 20.7 mph N/A   Clear
3:15 PM 86.2 °F 85.0 °F 57.2 °F 37% 29.85 in 10.0 mi SW 18.4 mph 21.9 mph N/A   Clear
3:35 PM 86.9 °F 86.1 °F 58.1 °F 38% 29.83 in 10.0 mi SW 17.3 mph 20.7 mph N/A   Clear
3:55 PM 87.1 °F 85.9 °F 57.2 °F 36% 29.83 in 10.0 mi SW 15.0 mph 20.7 mph N/A   Clear
4:15 PM 87.6 °F 86.3 °F 57.2 °F 35% 29.82 in 10.0 mi WSW 16.1 mph 23.0 mph N/A   Clear
4:35 PM 87.8 °F 86.7 °F 57.6 °F 36% 29.82 in 10.0 mi SW 18.4 mph 23.0 mph N/A   Clear
4:55 PM 87.8 °F 86.5 °F 57.0 °F 35% 29.82 in 10.0 mi SW 16.1 mph 23.0 mph N/A   Clear
5:15 PM 87.8 °F 86.3 °F 56.5 °F 34% 29.82 in 10.0 mi SW 16.1 mph 20.7 mph N/A   Clear
5:35 PM 87.1 °F 86.1 °F 58.1 °F 37% 29.81 in 10.0 mi SW 15.0 mph - N/A   Clear
5:55 PM 86.9 °F 85.6 °F 56.8 °F 36% 29.81 in 10.0 mi SW 12.7 mph - N/A   Clear
6:15 PM 86.4 °F 85.1 °F 56.5 °F 36% 29.81 in 10.0 mi SW 15.0 mph 20.7 mph N/A   Clear
6:35 PM 85.1 °F 84.4 °F 58.1 °F 40% 29.80 in 10.0 mi SW 11.5 mph - N/A   Clear
6:55 PM 83.3 °F 83.2 °F 59.2 °F 44% 29.80 in 10.0 mi SW 9.2 mph - N/A   Clear
7:15 PM 80.4 °F 81.3 °F 60.6 °F 51% 29.80 in 10.0 mi SSW 9.2 mph - N/A   Clear
7:35 PM 77.7 °F - 61.0 °F 56% 29.80 in 10.0 mi SSW 6.9 mph - N/A   Clear
7:55 PM 74.8 °F - 61.0 °F 62% 29.80 in 10.0 mi SSW 8.1 mph - N/A   Clear
8:15 PM 72.7 °F - 59.9 °F 64% 29.80 in 10.0 mi SW 9.2 mph - N/A   Clear
8:35 PM 73.8 °F - 57.4 °F 56% 29.80 in 10.0 mi SSW 10.4 mph - N/A   Clear
8:55 PM 77.0 °F - 54.1 °F 45% 29.81 in 10.0 mi SW 13.8 mph - N/A   Clear
9:15 PM 78.8 °F - 52.7 °F 40% 29.82 in 10.0 mi SW 12.7 mph - N/A   Clear
9:35 PM 78.4 °F - 52.3 °F 40% 29.83 in 10.0 mi SW 13.8 mph - N/A   Clear
9:55 PM 77.2 °F - 52.9 °F 43% 29.83 in 10.0 mi SW 11.5 mph - N/A   Clear
10:15 PM 77.4 °F - 52.3 °F 42% 29.84 in 10.0 mi SW 16.1 mph 21.9 mph N/A   Clear
10:35 PM 76.6 °F - 52.2 °F 42% 29.85 in 10.0 mi WSW 15.0 mph - N/A   Clear
10:55 PM 75.9 °F - 52.0 °F 43% 29.85 in 10.0 mi WSW 12.7 mph - N/A   Clear
11:15 PM 75.7 °F - 51.3 °F 42% 29.85 in 10.0 mi WSW 15.0 mph - N/A   Clear
11:35 PM 76.1 °F - 50.5 °F 41% 29.86 in 10.0 mi WSW 13.8 mph - N/A   Clear
11:55 PM 74.5 °F - 50.9 °F 43% 29.87 in 10.0 mi WSW 11.5 mph - N/A   Clear